FIN50C EFHK-EDDH

Flight info

Callsign FIN50C
Flight time 1h 23m
Altitude 40000
Route NUNTO Y369 REKDO DCT KOSKA DCT GIMRU T503 MICOS N850 BOGMU BOGMU3N
Aircraft A359/H-SDE2E3GHIJ3J4J5LM1ORWXY/LB1D1

Departure

Time 2026-04-22 06:38
Airport Helsinki Vantaa Airport (EFHK)

Arrival

Time 2026-04-22 08:01
Airport Hamburg Helmut Schmidt Airport (EDDH)
Time Latitude Longitude Altitude Speed Heading
2026-04-22 06:11 60.31507 24.95721 173 ft 0 kts 138°
2026-04-22 06:27 60.31524 24.95690 197 ft 4 kts 131°
2026-04-22 06:28 60.31540 24.95647 170 ft 4 kts 119°
2026-04-22 06:28 60.31550 24.95598 173 ft 4 kts 91°
2026-04-22 06:28 60.31546 24.95562 173 ft 0 kts 47°
2026-04-22 06:31 60.31578 24.95626 173 ft 11 kts 38°
2026-04-22 06:31 60.31595 24.95674 173 ft 0 kts 59°
2026-04-22 06:32 60.31600 24.95686 173 ft 5 kts 47°
2026-04-22 06:32 60.31657 24.95774 173 ft 13 kts 36°
2026-04-22 06:32 60.31735 24.95907 173 ft 16 kts 45°
2026-04-22 06:32 60.31811 24.96068 173 ft 16 kts 46°
2026-04-22 06:33 60.31880 24.96109 173 ft 9 kts 333°
2026-04-22 06:33 60.31933 24.96018 174 ft 11 kts 318°
2026-04-22 06:33 60.31983 24.95927 178 ft 11 kts 318°
2026-04-22 06:33 60.32046 24.95813 180 ft 14 kts 318°
2026-04-22 06:34 60.32129 24.95661 179 ft 18 kts 317°
2026-04-22 06:34 60.32225 24.95484 181 ft 19 kts 317°
2026-04-22 06:34 60.32323 24.95306 183 ft 18 kts 323°
2026-04-22 06:34 60.32439 24.95208 201 ft 18 kts 342°
2026-04-22 06:35 60.32564 24.95127 197 ft 19 kts 342°
2026-04-22 06:35 60.32689 24.95046 192 ft 19 kts 342°
2026-04-22 06:35 60.32827 24.94956 182 ft 23 kts 342°
2026-04-22 06:35 60.32912 24.94874 182 ft 11 kts 324°
2026-04-22 06:36 60.32965 24.94779 189 ft 11 kts 318°
2026-04-22 06:36 60.33020 24.94678 201 ft 10 kts 318°
2026-04-22 06:36 60.33068 24.94591 206 ft 8 kts 318°
2026-04-22 06:36 60.33104 24.94525 205 ft 5 kts 317°
2026-04-22 06:37 60.33121 24.94467 204 ft 7 kts 288°
2026-04-22 06:37 60.33113 24.94384 210 ft 6 kts 238°
2026-04-22 06:37 60.33056 24.94258 209 ft 30 kts 227°
2026-04-22 06:37 60.32726 24.93533 197 ft 108 kts 227°
2026-04-22 06:38 60.32068 24.92077 252 ft 164 kts 232°
2026-04-22 06:38 60.31308 24.90422 1163 ft 157 kts 234°
2026-04-22 06:38 60.30788 24.88657 1920 ft 141 kts 266°
2026-04-22 06:38 60.30684 24.86679 2445 ft 148 kts 276°
2026-04-22 06:39 60.30645 24.84437 2763 ft 173 kts 275°
2026-04-22 06:39 60.30590 24.81828 3061 ft 198 kts 274°
2026-04-22 06:39 60.30483 24.78885 3433 ft 224 kts 269°
2026-04-22 06:39 60.30035 24.75753 3927 ft 245 kts 256°
2026-04-22 06:40 60.29378 24.72509 4554 ft 255 kts 254°
2026-04-22 06:40 60.28678 24.69181 5268 ft 260 kts 253°
2026-04-22 06:40 60.27972 24.65794 5997 ft 264 kts 253°
2026-04-22 06:40 60.27259 24.62342 6675 ft 269 kts 253°
2026-04-22 06:41 60.26541 24.58859 7412 ft 270 kts 253°
2026-04-22 06:41 60.25819 24.55347 8184 ft 271 kts 253°
2026-04-22 06:41 60.25094 24.51827 8937 ft 273 kts 253°
2026-04-22 06:41 60.24333 24.48288 9668 ft 278 kts 249°
2026-04-22 06:42 60.23436 24.44788 10278 ft 286 kts 247°
2026-04-22 06:42 60.22461 24.41146 10596 ft 303 kts 246°
2026-04-22 06:42 60.21429 24.37320 10882 ft 320 kts 246°
2026-04-22 06:42 60.20357 24.33346 11170 ft 334 kts 246°
2026-04-22 06:43 60.19223 24.29153 11512 ft 346 kts 246°
2026-04-22 06:43 60.18057 24.24854 11989 ft 353 kts 246°
2026-04-22 06:43 60.17275 24.21977 12364 ft 355 kts 246°
2026-04-22 06:43 60.16083 24.17598 12907 ft 359 kts 246°
2026-04-22 06:44 60.14878 24.13173 13483 ft 362 kts 246°
2026-04-22 06:44 60.13663 24.08712 13988 ft 366 kts 246°
2026-04-22 06:44 60.12436 24.04218 14451 ft 370 kts 246°
2026-04-22 06:44 60.11189 23.99661 14929 ft 373 kts 246°
2026-04-22 06:45 60.09936 23.95087 15417 ft 376 kts 246°
2026-04-22 06:45 60.08668 23.90468 15858 ft 380 kts 246°
2026-04-22 06:45 60.07392 23.85783 16346 ft 383 kts 246°
2026-04-22 06:45 60.06143 23.81045 16763 ft 388 kts 247°
2026-04-22 06:46 60.04891 23.76224 17192 ft 393 kts 247°
2026-04-22 06:46 60.03629 23.71353 17692 ft 396 kts 247°
2026-04-22 06:46 60.02353 23.66447 18174 ft 399 kts 247°
2026-04-22 06:46 60.01073 23.61559 18589 ft 402 kts 246°
2026-04-22 06:47 59.99763 23.56587 18981 ft 406 kts 246°
2026-04-22 06:47 59.98437 23.51574 19378 ft 410 kts 246°
2026-04-22 06:47 59.97097 23.46528 19755 ft 413 kts 246°
2026-04-22 06:47 59.95742 23.41438 20151 ft 417 kts 246°
2026-04-22 06:48 59.94375 23.36311 20535 ft 420 kts 246°
2026-04-22 06:48 59.92995 23.31150 20926 ft 423 kts 246°
2026-04-22 06:48 59.91602 23.25954 21297 ft 426 kts 245°
2026-04-22 06:48 59.90197 23.20721 21670 ft 430 kts 245°
2026-04-22 06:49 59.88782 23.15464 22037 ft 433 kts 245°
2026-04-22 06:49 59.87351 23.10154 22335 ft 438 kts 244°
2026-04-22 06:49 59.85901 23.04785 22610 ft 443 kts 244°
2026-04-22 06:49 59.84428 22.99356 22965 ft 446 kts 244°
2026-04-22 06:50 59.82951 22.93924 23303 ft 449 kts 244°
2026-04-22 06:50 59.81474 22.88505 23616 ft 452 kts 244°
2026-04-22 06:50 59.79970 22.82995 23901 ft 455 kts 244°
2026-04-22 06:50 59.78454 22.77456 24199 ft 458 kts 244°
2026-04-22 06:51 59.76928 22.71881 24492 ft 461 kts 244°
2026-04-22 06:51 59.75391 22.66279 24778 ft 463 kts 244°
2026-04-22 06:51 59.73838 22.60643 25090 ft 466 kts 244°
2026-04-22 06:51 59.72270 22.54977 25414 ft 469 kts 244°
2026-04-22 06:52 59.70692 22.49287 25722 ft 472 kts 244°
2026-04-22 06:52 59.69104 22.43572 26062 ft 475 kts 244°
2026-04-22 06:52 59.67504 22.37828 26400 ft 478 kts 244°
2026-04-22 06:52 59.65889 22.32044 26754 ft 482 kts 244°
2026-04-22 06:53 59.64282 22.26297 27116 ft 485 kts 244°
2026-04-22 06:53 59.62641 22.20448 27482 ft 488 kts 244°
2026-04-22 06:53 59.60983 22.14552 27869 ft 492 kts 244°
2026-04-22 06:53 59.59311 22.08621 28258 ft 495 kts 244°
2026-04-22 06:54 59.57624 22.02652 28652 ft 499 kts 244°
2026-04-22 06:54 59.55923 21.96652 29009 ft 503 kts 244°
2026-04-22 06:54 59.54207 21.90612 29380 ft 508 kts 243°
2026-04-22 06:54 59.52472 21.84522 29784 ft 511 kts 243°
2026-04-22 06:55 59.50722 21.78397 30183 ft 515 kts 243°
2026-04-22 06:55 59.48951 21.72215 30478 ft 520 kts 243°
2026-04-22 06:55 59.47164 21.65993 30793 ft 525 kts 243°
2026-04-22 06:55 59.45354 21.59708 31084 ft 529 kts 243°
2026-04-22 06:56 59.43530 21.53388 31366 ft 534 kts 243°
2026-04-22 06:56 59.41692 21.47022 31680 ft 538 kts 243°
2026-04-22 06:56 59.39858 21.40696 31966 ft 542 kts 243°
2026-04-22 06:56 59.37984 21.34256 32245 ft 546 kts 243°
2026-04-22 06:57 59.36087 21.27756 32500 ft 550 kts 243°
2026-04-22 06:57 59.34178 21.21232 32762 ft 554 kts 243°
2026-04-22 06:57 59.32252 21.14669 33026 ft 557 kts 243°
2026-04-22 06:57 59.30302 21.08040 33245 ft 562 kts 243°
2026-04-22 06:58 59.28340 21.01387 33438 ft 566 kts 242°
2026-04-22 06:58 59.26365 20.94715 33761 ft 568 kts 242°
2026-04-22 06:58 59.24380 20.88028 34128 ft 569 kts 242°
2026-04-22 06:58 59.22388 20.81337 34479 ft 568 kts 242°
2026-04-22 06:59 59.20430 20.74781 35023 ft 563 kts 242°
2026-04-22 06:59 59.18383 20.68305 35611 ft 559 kts 237°
2026-04-22 06:59 59.16088 20.62212 36221 ft 554 kts 234°
2026-04-22 06:59 59.13751 20.56261 36734 ft 551 kts 234°
2026-04-22 07:00 59.11395 20.50400 37230 ft 547 kts 232°
2026-04-22 07:00 59.09046 20.44627 37838 ft 541 kts 232°
2026-04-22 07:00 59.06710 20.38915 38393 ft 537 kts 232°
2026-04-22 07:00 59.04387 20.33244 38834 ft 534 kts 232°
2026-04-22 07:01 59.02080 20.27613 39130 ft 533 kts 232°
2026-04-22 07:01 58.99769 20.21976 39400 ft 532 kts 232°
2026-04-22 07:01 58.97494 20.16432 39651 ft 531 kts 232°
2026-04-22 07:01 58.95165 20.10768 39906 ft 530 kts 232°
2026-04-22 07:02 58.92891 20.05245 40078 ft 531 kts 232°
2026-04-22 07:02 58.88271 19.94066 40144 ft 532 kts 232°
2026-04-22 07:03 58.83643 19.82926 40152 ft 531 kts 232°
2026-04-22 07:03 58.79003 19.71811 40154 ft 531 kts 232°
2026-04-22 07:04 58.74352 19.60722 40157 ft 531 kts 232°
2026-04-22 07:04 58.69691 19.49662 40157 ft 531 kts 231°
2026-04-22 07:05 58.65053 19.38706 40168 ft 532 kts 231°
2026-04-22 07:05 58.60369 19.27693 40170 ft 532 kts 231°
2026-04-22 07:06 58.55684 19.16731 40169 ft 532 kts 231°
2026-04-22 07:06 58.50985 19.05786 40173 ft 532 kts 231°
2026-04-22 07:07 58.46278 18.94873 40183 ft 532 kts 230°
2026-04-22 07:07 58.41563 18.83993 40181 ft 531 kts 230°
2026-04-22 07:08 58.36850 18.73167 40181 ft 531 kts 230°
2026-04-22 07:08 58.32127 18.62370 40184 ft 531 kts 230°
2026-04-22 07:09 58.27425 18.51668 40185 ft 531 kts 230°
2026-04-22 07:09 58.22680 18.40918 40187 ft 529 kts 230°
2026-04-22 07:10 58.17951 18.30254 40186 ft 528 kts 230°
2026-04-22 07:10 58.13217 18.19625 40194 ft 528 kts 230°
2026-04-22 07:11 58.08473 18.09024 40197 ft 528 kts 230°
2026-04-22 07:11 58.03719 17.98447 40204 ft 528 kts 230°
2026-04-22 07:12 57.99001 17.87997 40203 ft 526 kts 229°
2026-04-22 07:12 57.94247 17.77512 40203 ft 525 kts 229°
2026-04-22 07:13 57.89484 17.67056 40205 ft 525 kts 229°
2026-04-22 07:13 57.84717 17.56638 40205 ft 525 kts 229°
2026-04-22 07:14 57.79947 17.46261 40214 ft 525 kts 229°
2026-04-22 07:14 57.75202 17.35983 40210 ft 524 kts 229°
2026-04-22 07:15 57.70431 17.25693 40212 ft 524 kts 229°
2026-04-22 07:15 57.65640 17.15405 40212 ft 524 kts 229°
2026-04-22 07:16 57.60846 17.05154 40216 ft 524 kts 229°
2026-04-22 07:16 57.56041 16.94926 40216 ft 524 kts 229°
2026-04-22 07:17 57.51234 16.84738 40216 ft 524 kts 229°
2026-04-22 07:17 57.46438 16.74618 40224 ft 524 kts 228°
2026-04-22 07:18 57.41599 16.64451 40225 ft 524 kts 228°
2026-04-22 07:18 57.36762 16.54331 40225 ft 524 kts 228°
2026-04-22 07:19 57.31914 16.44233 40221 ft 524 kts 228°
2026-04-22 07:19 57.27069 16.34183 40230 ft 523 kts 228°
2026-04-22 07:20 57.22212 16.24151 40230 ft 523 kts 228°
2026-04-22 07:20 57.17345 16.14142 40229 ft 523 kts 228°
2026-04-22 07:21 57.12509 16.04239 40235 ft 523 kts 228°
2026-04-22 07:21 57.07630 15.94292 40235 ft 523 kts 228°
2026-04-22 07:22 57.02748 15.84379 40233 ft 523 kts 227°
2026-04-22 07:22 56.97864 15.74504 40232 ft 523 kts 227°
2026-04-22 07:23 56.92971 15.64652 40246 ft 523 kts 227°
2026-04-22 07:23 56.88070 15.54827 40241 ft 522 kts 227°
2026-04-22 07:24 56.83194 15.45092 40238 ft 522 kts 227°
2026-04-22 07:24 56.78280 15.35319 40238 ft 522 kts 227°
2026-04-22 07:25 56.73361 15.25580 40242 ft 522 kts 227°
2026-04-22 07:25 56.68424 15.15847 40244 ft 522 kts 227°
2026-04-22 07:26 56.63514 15.06204 40245 ft 522 kts 227°
2026-04-22 07:26 56.58566 14.96529 40252 ft 522 kts 227°
2026-04-22 07:27 56.53610 14.86876 40255 ft 522 kts 227°
2026-04-22 07:27 56.48646 14.77249 40261 ft 522 kts 227°
2026-04-22 07:28 56.41222 14.62925 40263 ft 522 kts 227°
2026-04-22 07:28 56.36243 14.53366 40263 ft 522 kts 227°
2026-04-22 07:29 56.31259 14.43837 40263 ft 522 kts 226°
2026-04-22 07:29 56.26265 14.34327 40269 ft 522 kts 226°
2026-04-22 07:30 56.21272 14.24858 40272 ft 522 kts 226°
2026-04-22 07:30 56.16270 14.15412 40270 ft 522 kts 226°
2026-04-22 07:31 56.11265 14.05997 40276 ft 521 kts 226°
2026-04-22 07:31 56.06280 13.96656 40282 ft 521 kts 226°
2026-04-22 07:32 56.02103 13.88860 40284 ft 521 kts 226°
2026-04-22 07:32 55.97081 13.79519 40284 ft 521 kts 226°
2026-04-22 07:33 55.92061 13.70219 40290 ft 521 kts 226°
2026-04-22 07:33 55.87021 13.60921 40297 ft 520 kts 226°
2026-04-22 07:34 55.82293 13.52231 40309 ft 520 kts 226°
2026-04-22 07:34 55.77293 13.43076 40299 ft 520 kts 226°
2026-04-22 07:35 55.72242 13.33864 40306 ft 519 kts 226°
2026-04-22 07:35 55.67191 13.24688 40306 ft 520 kts 226°
2026-04-22 07:36 55.62135 13.15541 40306 ft 520 kts 225°
2026-04-22 07:36 55.57099 13.06463 40314 ft 519 kts 225°
2026-04-22 07:37 55.52028 12.97360 40314 ft 519 kts 225°
2026-04-22 07:37 55.46952 12.88282 40314 ft 519 kts 225°
2026-04-22 07:38 55.41870 12.79228 40314 ft 519 kts 225°
2026-04-22 07:38 55.36787 12.70210 40319 ft 518 kts 225°
2026-04-22 07:39 55.31696 12.61211 40322 ft 518 kts 225°
2026-04-22 07:39 55.26640 12.52308 40322 ft 518 kts 225°
2026-04-22 07:40 55.21544 12.43367 40322 ft 518 kts 225°
2026-04-22 07:40 55.16415 12.34468 40330 ft 518 kts 223°
2026-04-22 07:41 55.11108 12.25939 40330 ft 518 kts 222°
2026-04-22 07:41 55.05745 12.17517 40335 ft 518 kts 222°
2026-04-22 07:42 55.00402 12.09072 40325 ft 518 kts 222°
2026-04-22 07:42 54.95099 12.00658 40343 ft 518 kts 222°
2026-04-22 07:43 54.89773 11.92218 40344 ft 518 kts 222°
2026-04-22 07:43 54.84443 11.83807 40166 ft 517 kts 222°
2026-04-22 07:44 54.81770 11.79602 39658 ft 518 kts 222°
2026-04-22 07:44 54.79093 11.75398 38843 ft 522 kts 222°
2026-04-22 07:44 54.76383 11.71152 37728 ft 527 kts 221°
2026-04-22 07:44 54.73654 11.66884 36652 ft 530 kts 221°
2026-04-22 07:45 54.70909 11.62600 35621 ft 532 kts 221°
2026-04-22 07:45 54.68195 11.58371 34671 ft 532 kts 221°
2026-04-22 07:45 54.65445 11.54095 33586 ft 532 kts 221°
2026-04-22 07:45 54.62727 11.49877 32333 ft 522 kts 221°
2026-04-22 07:46 54.60018 11.45681 31071 ft 523 kts 222°
2026-04-22 07:46 54.57298 11.41475 29700 ft 527 kts 222°
2026-04-22 07:46 54.54573 11.37271 28299 ft 524 kts 222°
2026-04-22 07:46 54.51871 11.33109 27020 ft 516 kts 222°
2026-04-22 07:47 54.49227 11.29046 25709 ft 504 kts 223°
2026-04-22 07:47 54.46638 11.25073 24586 ft 494 kts 222°
2026-04-22 07:47 54.44073 11.21143 23852 ft 494 kts 223°
2026-04-22 07:47 54.41508 11.17216 23442 ft 490 kts 223°
2026-04-22 07:48 54.38973 11.13344 23368 ft 489 kts 223°
2026-04-22 07:48 54.36435 11.09472 23213 ft 489 kts 223°
2026-04-22 07:48 54.33899 11.05610 22609 ft 485 kts 222°
2026-04-22 07:48 54.31426 11.01724 21832 ft 480 kts 227°
2026-04-22 07:49 54.29239 10.97458 21192 ft 471 kts 231°
2026-04-22 07:49 54.27172 10.93244 20554 ft 466 kts 231°
2026-04-22 07:49 54.25093 10.89005 19810 ft 462 kts 231°
2026-04-22 07:49 54.23052 10.84800 19102 ft 458 kts 231°
2026-04-22 07:50 54.21023 10.80606 18328 ft 454 kts 231°
2026-04-22 07:50 54.19014 10.76455 17512 ft 450 kts 231°
2026-04-22 07:50 54.17030 10.72359 16799 ft 444 kts 231°
2026-04-22 07:50 54.15091 10.68359 16252 ft 430 kts 231°
2026-04-22 07:51 54.13181 10.64425 15672 ft 429 kts 231°
2026-04-22 07:51 54.11289 10.60531 15046 ft 423 kts 231°
2026-04-22 07:51 54.09421 10.56690 14360 ft 418 kts 231°
2026-04-22 07:51 54.07603 10.52956 13590 ft 410 kts 231°
2026-04-22 07:52 54.05836 10.49329 12863 ft 386 kts 231°
2026-04-22 07:52 54.04152 10.45878 12006 ft 370 kts 231°
2026-04-22 07:52 54.02566 10.42619 11562 ft 346 kts 231°
2026-04-22 07:52 54.01082 10.39565 11166 ft 324 kts 231°
2026-04-22 07:53 53.99668 10.36689 10627 ft 310 kts 231°
2026-04-22 07:53 53.98303 10.33902 9966 ft 303 kts 231°
2026-04-22 07:53 53.96966 10.31164 9196 ft 299 kts 231°
2026-04-22 07:53 53.95642 10.28459 8410 ft 296 kts 231°
2026-04-22 07:54 53.94235 10.25951 7656 ft 292 kts 217°
2026-04-22 07:54 53.92429 10.24553 7017 ft 290 kts 190°
2026-04-22 07:54 53.90432 10.24384 6626 ft 285 kts 176°
2026-04-22 07:54 53.88466 10.24585 6229 ft 282 kts 174°
2026-04-22 07:55 53.86519 10.24840 5816 ft 280 kts 174°
2026-04-22 07:55 53.84607 10.25104 5237 ft 271 kts 174°
2026-04-22 07:55 53.82743 10.25382 4603 ft 266 kts 174°
2026-04-22 07:55 53.80919 10.25672 4087 ft 257 kts 174°
2026-04-22 07:56 53.79165 10.25955 3809 ft 250 kts 175°
2026-04-22 07:56 53.77470 10.25680 3646 ft 240 kts 198°
2026-04-22 07:56 53.75987 10.24614 3517 ft 229 kts 212°
2026-04-22 07:56 53.74824 10.22920 3391 ft 215 kts 232°
2026-04-22 07:57 53.73934 10.20973 3292 ft 203 kts 234°
2026-04-22 07:57 53.73059 10.19154 3114 ft 197 kts 232°
2026-04-22 07:57 53.72176 10.17384 2789 ft 195 kts 232°
2026-04-22 07:57 53.71311 10.15631 2512 ft 193 kts 233°
2026-04-22 07:58 53.70468 10.13907 2225 ft 185 kts 233°
2026-04-22 07:58 53.69679 10.12305 1967 ft 171 kts 233°
2026-04-22 07:58 53.68947 10.10815 1752 ft 159 kts 232°
2026-04-22 07:58 53.68259 10.09428 1515 ft 148 kts 233°
2026-04-22 07:59 53.67616 10.08123 1361 ft 144 kts 234°
2026-04-22 07:59 53.66983 10.06814 1109 ft 143 kts 234°
2026-04-22 07:59 53.66365 10.05530 931 ft 139 kts 234°
2026-04-22 07:59 53.65745 10.04287 710 ft 138 kts 233°
2026-04-22 08:00 53.65137 10.03064 539 ft 135 kts 233°
2026-04-22 08:00 53.64534 10.01842 373 ft 136 kts 232°
2026-04-22 08:00 53.63935 10.00636 207 ft 135 kts 232°
2026-04-22 08:00 53.63340 9.99437 49 ft 130 kts 232°
2026-04-22 08:01 53.62858 9.98460 47 ft 81 kts 229°
2026-04-22 08:01 53.62603 9.97948 44 ft 36 kts 230°
2026-04-22 08:01 53.62520 9.97810 41 ft 4 kts 198°
2026-04-22 08:01 53.62481 9.97808 46 ft 8 kts 171°
2026-04-22 08:02 53.62437 9.97846 44 ft 6 kts 127°
2026-04-22 08:02 53.62432 9.97899 44 ft 5 kts 92°
2026-04-22 08:02 53.62441 9.98010 49 ft 14 kts 75°
2026-04-22 08:02 53.62487 9.98140 49 ft 13 kts 50°
2026-04-22 08:03 53.62553 9.98275 49 ft 17 kts 50°
2026-04-22 08:03 53.62637 9.98443 46 ft 19 kts 50°
2026-04-22 08:03 53.62725 9.98623 47 ft 21 kts 50°
2026-04-22 08:03 53.62825 9.98825 47 ft 23 kts 50°
2026-04-22 08:04 53.62921 9.99019 49 ft 18 kts 50°
2026-04-22 08:04 53.62988 9.99155 49 ft 13 kts 51°
2026-04-22 08:04 53.63034 9.99250 49 ft 9 kts 50°
2026-04-22 08:04 53.63077 9.99348 49 ft 12 kts 56°
2026-04-22 08:05 53.63135 9.99488 49 ft 17 kts 53°
2026-04-22 08:05 53.63197 9.99622 50 ft 12 kts 51°
2026-04-22 08:05 53.63256 9.99726 47 ft 14 kts 44°
2026-04-22 08:05 53.63327 9.99860 47 ft 17 kts 50°
2026-04-22 08:06 53.63394 9.99996 48 ft 11 kts 50°
2026-04-22 08:06 53.63427 10.00101 49 ft 10 kts 93°
2026-04-22 08:06 53.63372 10.00185 48 ft 13 kts 159°
2026-04-22 08:06 53.63286 10.00205 50 ft 13 kts 176°
2026-04-22 08:07 53.63216 10.00222 48 ft 5 kts 149°
2026-04-22 08:07 53.63203 10.00280 50 ft 6 kts 95°
2026-04-22 08:07 53.63204 10.00328 53 ft 2 kts 86°
2026-04-22 08:07 53.63205 10.00353 55 ft 1 kts 86°